Probability
6 13 61 61 52 48 45 45 52 42 39 42 42 39 26 26 29 23 26 19 23 19 23 23 19 16 13 19 16 16 13 10 6 6 6 6 6 6 6 6 0 0 6
6 19 61 61 58 48 52 55 48 35 39 35 39 32 32 23 23 26 29 26 23 23 19 19 19 13 10 13 10 10 6 3 3 3 10 3 6 6 6 3 3 0 3
10 26 52 58 58 58 58 55 48 39 32 26 32 35 32 29 26 29 26 26 23 19 19 16 16 10 13 13 10 0 0 0 0 0 0 0 0 3 6 3 3 6 6
26 35 42 55 58 58 58 55 48 42 32 29 29 26 35 29 26 26 26 23 23 16 19 19 10 10 10 10 6 3 3 3 3 0 0 0 0 3 3 3 3 3 3
26 32 39 55 55 55 55 48 48 39 32 32 23 23 26 26 29 29 23 19 19 16 16 19 10 6 6 6 3 3 3 3 3 0 0 0 0 3 3 3 0 0 0
19 32 42 58 52 52 55 45 45 39 26 26 23 23 23 29 26 23 19 26 23 19 16 16 10 6 6 6 3 3 3 3 0 0 0 0 0 3 3 3 0 0 0
29 29 35 52 52 52 45 45 45 42 35 26 26 23 23 19 26 19 23 26 26 19 13 13 10 10 6 3 0 0 3 0 0 0 0 0 0 3 3 6 0 0 0
26 29 32 52 48 45 45 42 42 42 32 29 19 23 19 23 29 19 19 13 19 13 13 10 6 3 3 0 3 3 0 0 0 0 0 0 0 0 0 0 0 0 0
19 23 23 32 35 42 35 35 42 39 35 26 23 19 16 19 23 16 19 23 13 13 16 10 13 6 6 0 0 0 0 0 0 0 0 0 0 0 0 0 0 0 0
16 19 23 23 26 26 26 26 29 26 26 23 19 16 16 16 19 19 13 16 16 16 16 19 10 10 3 0 0 0 0 0 0 0 0 0 0 0 0 0 0 0 0
16 16 13 13 19 19 13 16 13 13 13 10 13 10 10 6 6 6 6 10 16 16 16 13 13 6 6 0 0 0 0 0 0 0 0 0 0 0 0 0 0 0 0
10 13 13 13 10 13 13 13 13 13 6 6 6 6 3 3 3 3 0 0 3 6 13 13 6 6 0 0 0 0 0 0 0 0 0 0 0 0 0 0 0 0 0
13 10 10 10 10 13 10 10 10 10 3 3 3 3 3 3 3 0 0 0 0 0 0 0 0 0 0 0 0 0 0 0 0 0 0 0 0 0 3 3 0 3 0
6 6 6 6 6 6 10 6 6 6 3 3 3 3 3 3 3 3 0 0 0 0 0 0 0 0 0 0 0 0 0 0 0 0 0 0 0 0 0 3 3 0 3
6 3 6 6 6 6 3 3 6 6 6 3 3 3 3 3 3 3 0 0 0 0 0 0 0 0 0 0 0 0 0 0 0 0 0 0 0 0 0 0 3 3 6
6 6 3 6 6 6 3 3 0 0 3 0 0 0 0 0 0 0 0 0 0 0 0 0 0 0 0 0 0 0 0 0 0 0 0 0 0 0 0 0 3 0 0
3 3 6 10 6 6 6 3 3 0 0 0 0 0 0 0 0 0 0 0 0 0 0 0 0 0 0 0 0 0 0 0 0 0 0 0 0 0 0 0 0 0 3
3 3 3 6 3 6 6 3 3 0 0 3 3 0 0 0 0 0 0 0 0 0 0 0 0 0 0 0 0 0 0 0 0 0 0 0 0 0 0 0 0 0 3
3 3 3 6 3 0 6 6 3 3 0 3 3 0 0 0 0 0 0 0 0 0 0 0 0 0 0 0 0 0 0 0 0 0 0 0 0 0 0 0 0 0 3
0 3 3 3 3 3 3 6 0 0 0 0 3 0 0 0 0 0 0 0 0 0 0 0 0 0 0 0 0 0 0 0 0 0 0 0 0 0 0 0 0 0 0
0 3 3 3 3 3 3 0 0 0 0 0 0 0 0 0 0 0 0 0 0 0 0 0 0 0 0 0 0 0 0 0 0 0 0 0 0 0 0 0 0 0 0
0 0 3 3 3 3 0 3 0 0 0 0 0 0 0 0 0 0 0 0 0 0 0 0 0 0 0 0 0 0 0 0 0 0 0 0 0 0 0 0 0 0 0
0 0 3 3 3 3 0 0 0 0 0 0 0 0 0 0 0 0 0 0 0 0 0 0 0 0 0 0 0 0 0 0 0 0 0 0 0 0 0 0 0 0 0
0 0 3 3 3 3 0 0 0 0 0 0 0 0 0 0 0 0 0 0 0 0 0 0 0 0 0 0 0 0 0 0 0 0 0 0 0 0 0 0 0 0 0
0 0 3 3 3 0 0 0 0 0 0 0 0 0 0 0 0 0 0 0 0 0 0 0 0 0 0 0 0 0 0 0 0 0 0 0 0 0 0 0 0 0 0
0 0 0 3 3 0 0 0 0 0 0 0 0 0 0 0 0 0 0 0 0 0 0 0 0 0 0 0 0 0 0 0 0 0 0 0 0 0 0 0 0 0 0
Height
5834 5836 5837 5838 5839 5840 5842 5843 5844 5845 5846 5847 5848 5850 5851 5851 5852 5853 5853 5854 5855 5856 5856 5857 5858 5859 5859 5860 5861 5861 5862 5863 5863 5863 5864 5864 5864 5864 5864 5864 5863 5863 5863
5832 5833 5834 5835 5837 5838 5839 5840 5841 5842 5844 5845 5846 5847 5848 5849 5850 5851 5851 5852 5853 5853 5854 5855 5855 5856 5857 5858 5858 5859 5860 5860 5861 5861 5862 5862 5862 5862 5862 5862 5862 5861 5861
5828 5830 5831 5832 5834 5835 5836 5837 5839 5840 5841 5842 5843 5844 5845 5846 5847 5848 5849 5850 5850 5851 5852 5852 5853 5854 5854 5855 5856 5856 5857 5858 5859 5859 5859 5860 5860 5860 5860 5860 5860 5859 5859
5825 5826 5828 5829 5830 5832 5833 5834 5836 5837 5838 5839 5840 5841 5842 5843 5844 5845 5846 5847 5847 5848 5849 5849 5850 5851 5851 5852 5853 5853 5854 5855 5856 5856 5856 5857 5857 5857 5857 5857 5857 5857 5857
5821 5823 5824 5825 5827 5828 5830 5831 5832 5834 5835 5836 5837 5838 5839 5840 5841 5842 5843 5844 5844 5845 5846 5846 5847 5848 5848 5849 5849 5850 5851 5851 5852 5853 5853 5854 5854 5854 5854 5854 5854 5854 5854
5817 5819 5820 5822 5823 5825 5826 5828 5829 5830 5831 5832 5834 5835 5836 5836 5837 5838 5839 5840 5840 5841 5842 5842 5843 5844 5845 5845 5846 5846 5847 5847 5848 5849 5850 5850 5850 5850 5851 5851 5851 5850 5850
5813 5815 5816 5818 5819 5821 5822 5824 5825 5826 5827 5829 5830 5831 5832 5832 5833 5834 5835 5836 5836 5837 5838 5838 5839 5840 5841 5841 5842 5843 5843 5844 5845 5845 5846 5846 5847 5847 5847 5847 5847 5847 5847
5809 5810 5812 5813 5815 5816 5818 5819 5821 5822 5823 5824 5826 5826 5827 5828 5829 5830 5830 5831 5832 5832 5833 5834 5834 5835 5836 5837 5838 5838 5839 5840 5840 5841 5842 5842 5843 5843 5843 5843 5843 5843 5843
5804 5806 5807 5809 5810 5812 5813 5815 5816 5817 5819 5820 5821 5822 5823 5824 5825 5825 5826 5826 5827 5828 5828 5829 5830 5831 5832 5833 5833 5834 5835 5835 5836 5837 5838 5838 5839 5839 5839 5839 5839 5839 5839
5798 5800 5802 5804 5805 5807 5808 5810 5811 5812 5813 5815 5816 5817 5818 5819 5820 5820 5821 5821 5822 5823 5823 5824 5825 5826 5827 5828 5829 5829 5830 5831 5832 5832 5833 5834 5834 5834 5835 5835 5835 5834 5834
5792 5794 5796 5798 5800 5801 5803 5804 5805 5807 5808 5809 5811 5812 5813 5814 5814 5815 5816 5816 5817 5817 5818 5819 5819 5820 5821 5822 5823 5824 5825 5826 5827 5827 5828 5829 5829 5830 5830 5830 5830 5830 5829
5786 5788 5790 5792 5794 5795 5797 5798 5800 5801 5802 5804 5805 5806 5807 5808 5809 5810 5810 5811 5811 5812 5813 5813 5814 5815 5816 5817 5818 5819 5820 5821 5822 5822 5823 5823 5824 5824 5825 5825 5825 5825 5824
5778 5781 5783 5785 5787 5789 5790 5792 5793 5794 5796 5797 5799 5800 5801 5802 5803 5804 5805 5805 5806 5806 5807 5808 5809 5810 5811 5812 5813 5814 5815 5816 5816 5817 5817 5818 5818 5819 5819 5819 5819 5819 5819
5771 5773 5775 5777 5779 5781 5783 5785 5786 5788 5789 5790 5792 5794 5795 5796 5797 5798 5799 5799 5800 5801 5801 5802 5803 5804 5805 5806 5807 5808 5809 5810 5811 5811 5812 5812 5813 5813 5813 5814 5813 5813 5813
5763 5765 5768 5770 5772 5774 5776 5777 5779 5781 5782 5783 5785 5787 5788 5790 5791 5792 5792 5793 5794 5794 5795 5796 5797 5798 5799 5801 5802 5802 5803 5804 5804 5805 5806 5806 5807 5807 5808 5808 5807 5807 5807
5754 5757 5759 5761 5763 5765 5768 5769 5771 5773 5775 5776 5778 5780 5781 5783 5784 5785 5785 5786 5787 5788 5789 5790 5791 5792 5793 5794 5795 5796 5797 5798 5798 5799 5799 5800 5801 5801 5801 5801 5801 5801 5800
5745 5748 5750 5752 5754 5756 5759 5761 5763 5765 5767 5769 5770 5772 5774 5775 5776 5777 5778 5779 5780 5781 5782 5783 5785 5786 5787 5788 5789 5790 5790 5791 5791 5792 5793 5794 5794 5794 5795 5795 5794 5794 5794
5735 5738 5741 5743 5745 5748 5750 5752 5754 5756 5758 5760 5762 5764 5766 5767 5769 5770 5770 5771 5772 5773 5775 5776 5778 5779 5780 5781 5782 5783 5784 5784 5785 5785 5786 5787 5787 5788 5788 5788 5787 5787 5786
5726 5728 5731 5733 5736 5738 5741 5743 5745 5747 5750 5752 5754 5756 5757 5759 5760 5761 5762 5763 5764 5766 5767 5769 5770 5772 5773 5774 5775 5776 5776 5777 5778 5779 5779 5780 5780 5780 5780 5780 5780 5779 5779
5715 5718 5721 5723 5726 5729 5731 5733 5735 5738 5740 5742 5745 5747 5749 5750 5752 5753 5754 5756 5757 5758 5760 5761 5763 5764 5765 5767 5768 5768 5769 5770 5771 5772 5772 5773 5773 5773 5772 5772 5772 5772 5771
5704 5707 5710 5713 5716 5718 5721 5723 5726 5729 5731 5733 5736 5738 5740 5742 5743 5745 5746 5747 5749 5751 5752 5754 5755 5756 5758 5759 5760 5761 5762 5763 5764 5764 5765 5765 5765 5765 5765 5764 5764 5763 5762
5693 5696 5699 5702 5705 5708 5711 5713 5716 5719 5721 5724 5726 5729 5731 5732 5734 5736 5737 5739 5741 5743 5744 5746 5747 5748 5750 5751 5753 5753 5754 5756 5756 5756 5757 5757 5757 5757 5756 5756 5756 5755 5754
5682 5685 5687 5691 5694 5696 5699 5702 5705 5708 5711 5713 5716 5719 5721 5723 5725 5727 5728 5730 5732 5734 5736 5737 5738 5740 5741 5743 5744 5745 5746 5748 5748 5748 5748 5749 5748 5748 5748 5748 5747 5746 5746
5671 5674 5676 5679 5682 5685 5688 5691 5694 5698 5701 5703 5706 5708 5711 5713 5715 5717 5719 5721 5723 5725 5726 5728 5729 5731 5732 5734 5734 5736 5738 5739 5740 5740 5740 5740 5740 5740 5739 5739 5738 5737 5736
5660 5663 5665 5668 5671 5674 5677 5680 5683 5687 5690 5692 5695 5697 5700 5703 5705 5707 5708 5710 5712 5714 5716 5718 5719 5721 5723 5724 5725 5726 5728 5729 5730 5732 5733 5732 5732 5731 5730 5730 5729 5728 5727
5650 5653 5655 5658 5661 5664 5667 5670 5673 5676 5679 5681 5684 5687 5690 5692 5695 5696 5698 5700 5702 5704 5706 5707 5709 5711 5713 5714 5716 5717 5719 5720 5721 5722 5723 5723 5723 5722 5721 5720 5719 5718 5717
Wind_Speed
16 16 16 15 14 13 12 12 12 12 12 12 11 11 10 10 10 10 10 10 10 11 11 11 10 11 11 10 10 10 10 9 9 9 9 9 9 9 9 8 9 10 10
17 16 16 16 16 15 14 13 13 13 14 13 13 12 12 11 11 12 11 12 12 12 13 13 12 12 12 13 12 12 12 11 11 11 11 10 10 10 10 10 11 11 12
18 18 17 16 16 16 15 14 14 15 15 15 14 13 13 13 13 13 13 13 14 14 14 14 14 13 13 14 14 14 14 13 13 13 12 12 12 12 13 12 13 13 13
19 19 18 17 17 16 15 15 15 15 15 16 16 15 15 14 14 14 14 15 15 15 16 16 16 15 15 15 16 16 16 15 15 15 14 14 14 14 14 14 14 14 15
20 19 19 18 18 17 17 16 16 16 16 16 17 17 17 16 16 16 16 16 17 17 18 18 18 17 17 16 17 17 17 17 17 17 16 16 16 16 15 15 16 16 16
21 21 20 20 20 19 18 18 17 17 17 17 17 18 18 18 18 18 18 18 18 18 19 19 19 19 19 18 18 18 18 18 18 17 17 17 17 17 17 17 17 17 17
23 22 22 22 21 21 20 20 19 19 19 19 19 19 18 19 19 19 19 19 19 20 20 20 20 19 19 19 19 19 19 19 19 18 18 18 18 18 18 18 18 18 18
24 24 24 23 23 23 22 21 21 21 21 21 21 20 20 19 19 20 21 21 21 21 21 21 21 21 20 20 20 20 20 20 19 19 19 19 19 19 19 19 20 20 20
25 26 25 25 24 24 23 23 23 23 23 23 22 22 21 21 21 21 21 22 23 23 23 23 23 22 22 22 22 22 21 21 21 21 21 21 21 20 20 21 21 21 21
27 27 26 26 26 26 25 25 24 24 24 24 24 24 23 23 23 23 23 23 24 24 24 24 24 24 24 23 23 23 23 23 22 22 22 23 23 22 22 22 22 22 22
29 29 28 28 28 27 27 27 26 26 26 25 25 25 25 24 24 24 24 24 24 24 25 24 24 25 25 24 24 24 24 24 24 24 24 24 24 24 24 24 23 23 24
31 30 30 30 29 29 29 28 28 28 27 27 27 26 26 25 25 25 25 25 25 25 24 25 25 25 25 25 24 24 24 24 25 25 25 25 25 25 25 25 25 25 25
32 32 31 31 31 31 30 30 29 29 29 28 28 27 27 26 26 25 25 25 25 25 24 25 25 25 25 26 25 25 24 25 26 26 25 26 26 26 26 26 26 26 26
33 33 33 32 32 32 31 31 32 31 30 29 29 29 28 28 27 27 26 26 26 26 25 25 26 25 26 26 26 26 26 26 27 27 27 26 26 26 27 27 27 27 28
35 34 34 34 33 33 33 33 33 33 32 31 31 30 30 29 29 28 28 28 28 28 27 27 27 27 27 27 27 28 28 27 27 28 28 27 27 27 28 28 28 27 28
37 36 36 35 35 35 35 35 35 35 35 33 33 32 31 31 30 30 30 30 30 30 29 28 28 28 28 28 28 29 29 29 28 29 29 29 29 29 28 29 29 29 30
38 38 38 37 36 36 36 37 36 36 36 35 34 34 33 32 32 31 31 31 31 31 31 31 30 30 29 30 30 30 30 30 30 30 30 30 30 30 30 30 30 31 31
39 39 39 39 38 38 38 38 38 38 37 38 36 36 35 34 33 33 32 32 32 32 32 32 31 31 31 31 31 30 31 31 31 31 31 31 31 30 31 32 32 32 32
40 40 41 41 40 40 40 40 40 39 38 39 38 37 37 35 34 34 33 33 33 33 33 33 33 32 33 32 32 31 32 32 32 32 32 32 32 31 32 32 33 33 34
41 42 43 43 43 42 42 42 42 41 40 40 40 38 38 37 35 35 34 34 34 34 34 34 34 34 33 34 34 33 33 32 32 32 32 33 33 33 33 33 34 35 36
43 44 44 44 44 43 43 43 43 42 42 42 41 40 39 37 36 35 34 35 35 35 34 34 34 34 34 34 33 33 33 33 33 34 34 33 34 34 34 35 35 36 37
43 44 44 44 44 44 43 43 43 43 42 43 43 42 41 39 38 37 36 36 35 35 36 36 35 35 35 34 34 35 35 35 35 35 35 34 34 34 34 35 36 36 37
42 43 43 43 43 44 44 44 44 44 43 44 43 43 42 41 40 39 38 37 37 37 37 37 37 37 36 36 36 36 36 36 35 34 34 34 34 35 35 36 37 37 38
41 42 42 42 42 43 44 44 44 44 43 43 43 43 43 42 41 40 40 40 40 39 39 39 39 39 38 38 38 38 38 37 35 35 35 35 36 36 37 37 38 38 39
40 40 41 41 40 40 41 42 42 42 42 42 42 42 43 43 42 41 41 41 40 40 40 40 40 40 40 39 39 39 38 37 36 36 36 36 37 37 38 38 39 39 39
39 38 39 40 39 39 39 40 41 41 42 42 42 42 43 43 42 42 42 42 41 41 40 39 39 39 39 40 39 40 39 38 38 37 38 38 38 38 39 39 40 40 40
Wind_Direction
241 241 243 244 244 243 245 246 246 245 242 242 243 243 246 249 254 260 265 267 269 267 267 264 263 264 265 268 269 272 273 275 277 280 282 286 289 290 293 296 298 301 303
244 244 246 246 246 245 247 248 247 247 246 246 248 248 249 252 257 262 267 269 270 270 270 266 264 264 265 266 267 268 269 270 272 275 277 280 284 286 288 290 292 294 299
244 244 245 247 246 245 248 250 248 248 249 249 250 251 252 254 258 263 266 269 270 271 272 270 267 265 265 266 266 266 266 266 268 272 273 276 279 281 282 285 288 291 295
242 244 245 246 246 247 248 249 249 250 251 251 252 252 253 255 258 262 264 266 268 270 271 270 268 265 266 267 268 267 266 265 266 269 272 274 276 278 278 281 285 288 290
243 243 244 246 247 247 248 249 250 250 251 253 253 253 255 256 259 261 263 266 268 269 269 268 266 265 265 267 267 268 266 264 265 268 270 273 274 276 277 279 282 285 288
244 244 244 246 247 248 249 249 250 250 252 254 255 255 257 258 259 260 262 265 268 269 268 266 265 264 264 265 266 266 266 264 265 267 269 271 272 274 276 278 282 285 287
247 246 246 247 247 248 248 250 251 251 252 255 257 258 258 260 260 261 263 265 268 268 267 266 264 263 264 264 264 265 265 264 264 266 268 270 271 273 275 277 280 284 286
248 248 248 249 249 249 250 250 251 252 253 254 257 260 261 262 262 262 263 265 266 268 268 266 264 263 264 264 264 265 264 264 265 265 266 269 271 273 274 276 279 282 285
249 250 250 250 251 251 251 251 251 252 253 255 257 260 262 263 263 265 265 265 266 267 269 267 264 262 262 263 264 264 263 263 263 265 267 269 270 271 272 275 278 281 284
249 250 250 251 252 252 253 253 253 253 253 254 257 259 262 263 264 265 266 267 267 267 267 267 265 262 262 262 263 264 264 263 263 266 267 268 269 270 272 275 277 279 282
248 248 250 250 252 253 254 254 254 255 254 255 256 259 261 263 265 266 266 267 267 267 266 265 265 263 262 262 263 264 264 264 264 266 267 268 269 270 272 274 276 277 279
247 247 249 250 251 252 253 254 254 255 256 256 257 258 260 262 264 265 266 267 267 266 264 264 264 264 263 262 263 264 264 265 265 267 269 269 269 270 271 272 274 276 279
247 248 249 249 250 251 252 252 252 254 255 256 257 258 259 261 262 264 265 266 266 265 264 264 265 264 263 263 263 265 264 266 268 268 270 269 270 270 270 272 273 275 278
248 248 248 249 249 249 250 251 251 253 255 255 256 257 259 260 261 263 265 265 265 264 263 264 264 264 263 263 263 264 266 268 268 269 269 269 270 271 271 272 274 275 277
247 248 249 250 250 250 250 251 252 251 253 255 256 256 258 260 261 262 264 265 264 263 263 263 263 264 265 265 265 265 268 269 269 270 270 270 269 270 271 272 274 276 277
248 248 249 251 252 251 251 251 254 253 252 254 255 255 257 259 261 262 264 265 264 262 262 262 262 264 265 266 267 267 269 270 272 272 271 271 271 271 271 272 274 277 279
249 249 250 251 252 252 252 252 254 255 253 253 254 255 256 258 260 263 264 264 263 262 262 263 262 263 263 265 267 268 269 271 272 272 270 271 271 271 272 274 276 277 279
249 249 249 250 252 252 252 252 254 255 254 253 254 255 256 258 260 262 263 263 263 262 262 263 262 263 263 266 268 269 270 271 271 272 270 271 271 272 273 275 277 278 279
249 249 249 251 253 254 253 252 253 255 255 254 254 255 257 258 260 262 263 262 262 263 263 263 261 263 264 264 265 268 271 271 270 270 271 271 271 271 273 275 276 278 280
250 250 250 251 253 254 253 252 253 255 255 254 254 256 257 258 259 261 261 261 261 263 263 263 262 264 264 264 265 267 269 269 269 271 271 271 273 273 273 274 276 277 280
250 251 251 252 253 253 254 254 254 254 255 254 254 254 256 257 258 260 260 261 261 262 262 262 264 263 263 263 264 265 266 268 268 270 270 270 273 274 275 276 277 279 280
251 251 251 252 253 253 253 255 254 254 254 254 254 253 255 255 256 258 258 259 260 261 261 261 262 262 262 262 263 265 265 267 268 270 270 272 273 274 275 277 278 279 281
252 251 251 251 252 252 253 253 253 253 254 254 253 252 253 253 255 257 257 258 259 260 261 260 260 261 262 262 263 264 265 266 267 269 269 272 274 275 276 277 278 280 281
251 251 250 250 251 252 252 253 253 253 253 253 253 252 252 253 253 256 256 256 258 259 259 259 260 260 261 262 264 264 265 266 268 268 270 273 274 275 276 277 278 280 282
252 252 250 250 249 252 252 252 251 251 251 251 251 252 252 252 253 255 255 256 258 258 259 259 259 259 260 262 263 263 264 267 268 269 270 272 274 275 277 278 278 279 280
252 252 251 250 250 250 251 251 250 251 251 251 250 251 251 252 253 254 255 256 257 257 257 257 258 259 260 261 262 262 264 266 268 269 271 272 273 275 276 278 279 279 281